COSMOS 1275 DEB, 12952

Orbit data source: Space-Track

COSMOS 1275 DEB, 12952 is space debris in LEO originally from a launch on Thu, 04 Jun 1981 UTC launched from the Plesetsk Missile And Space Complex (PKMTR). Debris objects in space refer to the collection of defunct objects orbiting the Earth. Examples of debris include non-operational satellites, rocket bodies, and fragments generated from explosions, collisions, or faulty payload assembly.

Loading next visibility...
Identifier
12952, 1981-053EG
Orbit
LEO
Country
Flag of CISCIS
Related business
Manufacturer
Unknown
Mission
Spacecraft
Bus & Motor
Unknown
Mass
Unknown
Launch date (UTC)
1981-06-04 (44 years ago)
Launch vehicle
Unknown
Launch site
Plesetsk Missile And Space Complex (PKMTR)
Object type
Payload
Rocket body
Debris
Shape & HBR
Unknown shape, 0.1 m
Radar Cross Section
Small (<0.1 m²)

Expand to show TLE details & history
Last TLE update: 10 hours ago

TLE from 10 hours ago
0 COSMOS 1275 DEB
1 12952U 81053EG  25302.34016742  .00000936  00000-0  63935-3 0  9992
2 12952  82.9600 150.8911 0009574  85.9666  94.1325 13.98789672230544
Epoch: 2025-10-29T08:09Z
TLE epoch observation values (Epoch: 2025-10-29T08:09:50.465Z)
Latitude
-0.32496°
Longitude
170.55604°
Altitude
901.474 km
Speed
7.401 km/s
True Right ascension
22h 03m 43s
True Declination
0° 19' 23"
Sunlit
Object was in daylight at epoch
Visualization orbit readout
Latitude
Unknown
Longitude
Unknown
Altitude
Unknown
Speed
Unknown
Apparent Right ascension
Unknown
Apparent Declination
Unknown
Sunlit
N/A
Visualization observer readout
Local Sidereal Time
13:53:19
Azimuth
Unknown
Elevation
Unknown
Doppler factor
Unknown
Orbital elements
Apogee altitude
902.068 km
Perigee altitude
888.141 km
Semi-major axis
7,273.242 km
Eccentricity
0.00096
Inclination
82.96°
RAAN
150.8911°
Arg. of periapsis
85.9666°
True anomaly
94.24192°
Mean anomaly
94.1325°
Eccentric anomaly
94.18721°
Mean motion
3.49906 °/min
Orbital period
102.88 mins
BSTAR
0.00063935
Loading maneuver chart data...
Computing Atmospheric mass density...
Loading historical data...
Loading historical data...
Loading historical data...
Loading historical data...
Loading historical data...
Loading historical data...
Loading historical data...

Documentation

Showing up to 5 results
|